Weather History for The Dalles, OR

Change the Weather History Date:

Thursday, June 27, 2013

  Actual Average Record
Temperature  
Mean Temperature 72 °F -  
Max Temperature 87 °F 82 °F 98 °F (2000)
Min Temperature 59 °F 56 °F 44 °F (1949)
Cooling Degree Days 8    
Growing Degree Days 22 (Base 50)    
Moisture  
Dew Point 57 °F    
Average Humidity 60    
Maximum Humidity 87    
Minimum Humidity 36    
Precipitation  
Precipitation 0.00 in - - ()
Sea Level Pressure  
Sea Level Pressure 30.09 in    
Wind  
Wind Speed 6 mph (NW)    
Max Wind Speed 15 mph    
Max Gust Speed -    
Visibility 10 miles    
Events      
Averages and records for this station are not official NWS values.
T = Trace of Precipitation, MM = Missing Value Source: NWS Daily Summary

Daily Weather History Graph

Daily Weather History Graph

Search for Another Location

Airport:

Trip Planner

Search our weather history database for the weather conditions in past years. The results will help you decide how hot, cold, wet, or windy it might be!

Date:

Astronomy

Jun. 27, 2013 Rise Set
Actual Time 5:17 AM PDT 8:57 PM PDT
Civil Twilight 4:39 AM PDT 9:35 PM PDT
Nautical Twilight 3:48 AM PDT 10:26 PM PDT
Astronomical Twilight 2:39 AM PDT 11:35 PM PDT
Moon 11:39 PM PDT (6/27) 10:40 AM PDT (6/27)
Length of Visible Light 16h 56m
Length of Day
15h 40m
Waning Gibbous, 75% of the Moon is Illuminated
Jun 27
Waning Gibbous
Jun 29
Last Quarter
Jul 8
New
Jul 15
First Quarter
Jul 22
Full

Hourly Weather History & Observations

Time (PDT) Temp. Heat Index Dew Point Humidity Pressure Visibility Wind Dir Wind Speed Gust Speed Precip Events Conditions
12:53 AM 63.0 °F - 55.0 °F 75% 30.07 in 10.0 mi NW 3.5 mph - N/A   Overcast
1:53 AM 61.0 °F - 55.0 °F 81% 30.06 in 10.0 mi NW 3.5 mph - N/A   Clear
2:53 AM 59.0 °F - 55.0 °F 87% 30.06 in 10.0 mi NNE 3.5 mph - N/A   Mostly Cloudy
3:53 AM 60.1 °F - 55.9 °F 86% 30.05 in 10.0 mi West 3.5 mph - N/A   Overcast
4:53 AM 60.1 °F - 55.9 °F 86% 30.06 in 10.0 mi Calm Calm - N/A   Overcast
5:53 AM 62.1 °F - 55.9 °F 80% 30.07 in 10.0 mi Calm Calm - N/A   Overcast
6:53 AM 63.0 °F - 55.9 °F 78% 30.09 in 10.0 mi Calm Calm - N/A   Mostly Cloudy
7:53 AM 64.9 °F - 57.0 °F 75% 30.10 in 10.0 mi NNW 3.5 mph - N/A   Partly Cloudy
8:53 AM 66.9 °F - 55.9 °F 68% 30.10 in 10.0 mi Variable 3.5 mph - N/A   Partly Cloudy
9:53 AM 70.0 °F - 55.9 °F 61% 30.11 in 10.0 mi NW 5.8 mph - N/A   Mostly Cloudy
10:53 AM 72.0 °F - 57.0 °F 59% 30.11 in 10.0 mi NNW 9.2 mph - N/A   Scattered Clouds
11:53 AM 75.9 °F - 57.0 °F 52% 30.11 in 10.0 mi NW 11.5 mph - N/A   Overcast
12:53 PM 80.1 °F 80.2 °F 55.9 °F 43% 30.09 in 10.0 mi NW 9.2 mph - N/A   Clear
1:53 PM 84.0 °F 83.3 °F 57.0 °F 40% 30.09 in 10.0 mi NW 12.7 mph - N/A   Clear
2:53 PM 84.9 °F 83.6 °F 55.0 °F 36% 30.08 in 10.0 mi NNW 10.4 mph - N/A   Clear
3:53 PM 84.9 °F 83.9 °F 57.0 °F 38% 30.08 in 10.0 mi NW 11.5 mph - N/A   Clear
4:53 PM 86.0 °F 85.0 °F 57.9 °F 38% 30.07 in 10.0 mi NW 11.5 mph - N/A   Clear
5:53 PM 84.9 °F 84.2 °F 57.9 °F 40% 30.08 in 10.0 mi WNW 15.0 mph - N/A   Clear
6:53 PM 84.0 °F 83.8 °F 59.0 °F 43% 30.09 in 10.0 mi WNW 12.7 mph - N/A   Clear
7:53 PM 81.0 °F 81.0 °F 57.0 °F 44% 30.09 in 10.0 mi WNW 13.8 mph - N/A   Clear
8:53 PM 77.0 °F - 57.9 °F 52% 30.11 in 10.0 mi West 6.9 mph - N/A   Clear
9:53 PM 73.9 °F - 57.9 °F 57% 30.13 in 10.0 mi WNW 4.6 mph - N/A   Clear
10:53 PM 73.9 °F - 57.9 °F 57% 30.13 in 10.0 mi WNW 8.1 mph - N/A   Clear
11:53 PM 72.0 °F - 59.0 °F 64% 30.14 in 10.0 mi NW 8.1 mph - N/A   Clear